STARLINK-11581, 63144

Orbit data source: Space-Track

STARLINK-11581, 63144 is a payload satellite owned by SpaceX/Seattle (US) in LEO that was launched on Mon, 03 Mar 2025 UTC via an FALCON 9 launch vehicle from the Air Force Eastern Test Range (AFETR). Payload-class satellites include a variety of spacecraft equipped with specific instruments for various scientific and technological missions. These include communications satellites like Starlink; space stations such as the ISS; scientific satellites like the Hubble; Earth observation satellites from companies like Planet Labs, Umbra, and HawkEye 360; GPS; miniature CubeSats for education and research; and military/defense satellites.

Loading next visibility...
Identifier
63144, 2025-043N
Orbit
LEO
Country
Flag of USUS
Related business
Manufacturer
SpaceX/Seattle
Mission
Operational Commercial Communications
Bus & Motor
STARLINK V2MD, Unknown motor
Mass
960 kg wet, ~910 kg dry
Launch date (UTC)
2025-03-03 (10 months ago)
Launch vehicle
FALCON 9
Launch site
Air Force Eastern Test Range (AFETR)
Object type
Payload
Rocket body
Debris
Shape & HBR
Box + 2 Pan, 18.1 m
Radar Cross Section
36.964 m², Large (>1 m²)

Expand to show TLE details & history
Last TLE update: 10 hours ago

TLE from 10 hours ago
0 STARLINK-11581
1 63144U 25043N   25352.12455673  .00102531  00000-0  79134-3 0  9991
2 63144  42.9993  22.3993 0001346 315.6539  44.4221 15.70881624 46649
Epoch: 2025-12-18T02:59Z
TLE epoch observation values (Epoch: 2025-12-18T02:59:21.701Z)
Latitude
Longitude
-109.42568°
Altitude
355.5 km
Speed
7.698 km/s
True Right ascension
01h 29m 35s
True Declination
0° 00' 00"
Sunlit
Object was in full shadow at epoch
Visualization orbit readout
Latitude
Unknown
Longitude
Unknown
Altitude
Unknown
Speed
Unknown
Apparent Right ascension
Unknown
Apparent Declination
Unknown
Sunlit
N/A
Visualization observer readout
Local Sidereal Time
11:52:26
Azimuth
Unknown
Elevation
Unknown
Doppler factor
Unknown
Orbital elements
Apogee altitude
359.265 km
Perigee altitude
357.451 km
Semi-major axis
6,736.495 km
Eccentricity
0.00013
Inclination
42.9993°
RAAN
22.3993°
Arg. of periapsis
315.6539°
True anomaly
44.4329°
Mean anomaly
44.4221°
Eccentric anomaly
44.4275°
Mean motion
3.92547 °/min
Orbital period
91.71 mins
BSTAR
0.00079134
Loading maneuver chart data...
Computing Atmospheric mass density...
Loading historical data...
Loading historical data...
Loading historical data...
Loading historical data...
Loading historical data...
Loading historical data...
Loading historical data...

Documentation

Showing up to 5 results
|